time,lat,lon
20070803T12:16:17 ,       29.6140 ,     -95.1460
20070803T12:16:18 ,       29.6150 ,     -95.1450
20070803T12:16:19 ,       29.6150 ,     -95.1450
20070803T12:16:20 ,       29.6160 ,     -95.1440
20070803T12:16:21 ,       29.6160 ,     -95.1430
20070803T12:16:22 ,       29.6170 ,     -95.1430
20070803T12:16:23 ,       29.6170 ,     -95.1420
20070803T12:16:24 ,       29.6170 ,     -95.1410
20070803T12:16:25 ,       29.6180 ,     -95.1410
20070803T12:16:26 ,       29.6180 ,     -95.1400
20070803T12:16:27 ,       29.6180 ,     -95.1390
20070803T12:16:28 ,       29.6190 ,     -95.1380
20070803T12:16:29 ,       29.6190 ,     -95.1370
20070803T12:16:30 ,       29.6190 ,     -95.1370
20070803T12:16:31 ,       29.6190 ,     -95.1360
20070803T12:16:32 ,       29.6190 ,     -95.1350
20070803T12:16:34 ,       29.6190 ,     -95.1340
20070803T12:16:35 ,       29.6190 ,     -95.1340
20070803T12:16:36 ,       29.6190 ,     -95.1330
20070803T12:16:37 ,       29.6190 ,     -95.1320
20070803T12:16:38 ,       29.6190 ,     -95.1310
20070803T12:16:39 ,       29.6190 ,     -95.1300
20070803T12:16:40 ,       29.6190 ,     -95.1290
20070803T12:16:41 ,       29.6190 ,     -95.1280
20070803T12:16:42 ,       29.6180 ,     -95.1280
20070803T12:16:43 ,       29.6180 ,     -95.1270
20070803T12:16:44 ,       29.6180 ,     -95.1260
20070803T12:16:45 ,       29.6170 ,     -95.1250
20070803T12:16:46 ,       29.6170 ,     -95.1240
20070803T12:16:47 ,       29.6160 ,     -95.1230
20070803T12:16:48 ,       29.6160 ,     -95.1230
20070803T12:16:49 ,       29.6150 ,     -95.1220
20070803T12:16:50 ,       29.6150 ,     -95.1210
20070803T12:16:51 ,       29.6140 ,     -95.1210
20070803T12:16:52 ,       29.6140 ,     -95.1200
20070803T12:16:53 ,       29.6130 ,     -95.1200
20070803T12:16:54 ,       29.6120 ,     -95.1190
20070803T12:16:55 ,       29.6110 ,     -95.1190
20070803T12:16:56 ,       29.6110 ,     -95.1180
20070803T12:16:57 ,       29.6100 ,     -95.1180
20070803T12:16:58 ,       29.6090 ,     -95.1180
20070803T12:16:59 ,       29.6090 ,     -95.1170
20070803T12:17:00 ,       29.6080 ,     -95.1170
20070803T12:17:01 ,       29.6070 ,     -95.1170
20070803T12:17:02 ,       29.6060 ,     -95.1170
20070803T12:17:03 ,       29.6050 ,     -95.1170
20070803T12:17:04 ,       29.6050 ,     -95.1170
20070803T12:17:05 ,       29.6040 ,     -95.1170
20070803T12:17:06 ,       29.6030 ,     -95.1170
20070803T12:17:07 ,       29.6020 ,     -95.1170
20070803T12:17:08 ,       29.6010 ,     -95.1170
20070803T12:17:09 ,       29.6010 ,     -95.1170
20070803T12:17:10 ,       29.6000 ,     -95.1160
20070803T12:17:11 ,       29.5990 ,     -95.1160
20070803T12:17:12 ,       29.5980 ,     -95.1160
20070803T12:17:13 ,       29.5970 ,     -95.1160
20070803T12:17:14 ,       29.5970 ,     -95.1160
20070803T12:17:15 ,       29.5960 ,     -95.1150
20070803T12:17:16 ,       29.5950 ,     -95.1150
20070803T12:17:17 ,       29.5940 ,     -95.1150
20070803T12:17:18 ,       29.5940 ,     -95.1140
20070803T12:17:19 ,       29.5930 ,     -95.1140
20070803T12:17:20 ,       29.5920 ,     -95.1140
20070803T12:17:21 ,       29.5910 ,     -95.1130
20070803T12:17:22 ,       29.5910 ,     -95.1130
20070803T12:17:23 ,       29.5900 ,     -95.1120
20070803T12:17:24 ,       29.5890 ,     -95.1120
20070803T12:17:25 ,       29.5890 ,     -95.1110
20070803T12:17:26 ,       29.5880 ,     -95.1100
20070803T12:17:27 ,       29.5870 ,     -95.1100
20070803T12:17:28 ,       29.5870 ,     -95.1090
20070803T12:17:29 ,       29.5860 ,     -95.1090
20070803T12:17:30 ,       29.5860 ,     -95.1080
20070803T12:17:31 ,       29.5850 ,     -95.1080
20070803T12:17:32 ,       29.5840 ,     -95.1070
20070803T12:17:33 ,       29.5840 ,     -95.1070
20070803T12:17:34 ,       29.5830 ,     -95.1060
20070803T12:17:35 ,       29.5830 ,     -95.1060
20070803T12:17:36 ,       29.5820 ,     -95.1050
20070803T12:17:37 ,       29.5810 ,     -95.1040
20070803T12:17:38 ,       29.5810 ,     -95.1040
20070803T12:17:39 ,       29.5800 ,     -95.1030
20070803T12:17:40 ,       29.5800 ,     -95.1030
20070803T12:17:41 ,       29.5790 ,     -95.1020
20070803T12:17:42 ,       29.5780 ,     -95.1010
20070803T12:17:43 ,       29.5780 ,     -95.1010
20070803T12:17:44 ,       29.5770 ,     -95.1000
20070803T12:17:45 ,       29.5760 ,     -95.1000
20070803T12:17:46 ,       29.5760 ,     -95.1000
20070803T12:17:47 ,       29.5750 ,     -95.0990
20070803T12:17:48 ,       29.5750 ,     -95.0980
20070803T12:17:49 ,       29.5740 ,     -95.0980
20070803T12:17:50 ,       29.5730 ,     -95.0970
20070803T12:17:51 ,       29.5730 ,     -95.0960
20070803T12:17:52 ,       29.5720 ,     -95.0960
20070803T12:17:53 ,       29.5710 ,     -95.0950
20070803T12:17:54 ,       29.5710 ,     -95.0950
20070803T12:17:55 ,       29.5700 ,     -95.0940
20070803T12:17:56 ,       29.5690 ,     -95.0930
20070803T12:17:57 ,       29.5690 ,     -95.0930
20070803T12:17:58 ,       29.5680 ,     -95.0920
20070803T12:17:59 ,       29.5670 ,     -95.0910
20070803T12:18:00 ,       29.5670 ,     -95.0910
20070803T12:18:01 ,       29.5660 ,     -95.0900
20070803T12:18:02 ,       29.5650 ,     -95.0900
20070803T12:18:03 ,       29.5650 ,     -95.0890
20070803T12:18:04 ,       29.5640 ,     -95.0880
20070803T12:18:05 ,       29.5630 ,     -95.0880
20070803T12:18:06 ,       29.5630 ,     -95.0870
20070803T12:18:07 ,       29.5620 ,     -95.0870
20070803T12:18:08 ,       29.5610 ,     -95.0860
20070803T12:18:09 ,       29.5610 ,     -95.0850
20070803T12:18:10 ,       29.5600 ,     -95.0850
20070803T12:18:11 ,       29.5590 ,     -95.0840
20070803T12:18:12 ,       29.5580 ,     -95.0840
20070803T12:18:13 ,       29.5580 ,     -95.0840
20070803T12:18:14 ,       29.5570 ,     -95.0830
20070803T12:18:15 ,       29.5560 ,     -95.0820
20070803T12:18:16 ,       29.5560 ,     -95.0820
20070803T12:18:17 ,       29.5550 ,     -95.0810
20070803T12:18:18 ,       29.5540 ,     -95.0810
20070803T12:18:19 ,       29.5540 ,     -95.0800
20070803T12:18:20 ,       29.5530 ,     -95.0790
20070803T12:18:21 ,       29.5520 ,     -95.0790
20070803T12:18:22 ,       29.5510 ,     -95.0780
20070803T12:18:23 ,       29.5510 ,     -95.0780
20070803T12:18:24 ,       29.5500 ,     -95.0770
20070803T12:18:25 ,       29.5490 ,     -95.0760
20070803T12:18:26 ,       29.5480 ,     -95.0760
20070803T12:18:27 ,       29.5480 ,     -95.0750
20070803T12:18:28 ,       29.5470 ,     -95.0750
20070803T12:18:29 ,       29.5460 ,     -95.0740
20070803T12:18:30 ,       29.5460 ,     -95.0730
20070803T12:18:31 ,       29.5450 ,     -95.0730
20070803T12:18:32 ,       29.5440 ,     -95.0720
20070803T12:18:33 ,       29.5430 ,     -95.0720
20070803T12:18:34 ,       29.5430 ,     -95.0710
20070803T12:18:35 ,       29.5420 ,     -95.0710
20070803T12:18:36 ,       29.5410 ,     -95.0700
20070803T12:18:37 ,       29.5400 ,     -95.0690
20070803T12:18:38 ,       29.5400 ,     -95.0690
20070803T12:18:39 ,       29.5390 ,     -95.0680
20070803T12:18:40 ,       29.5380 ,     -95.0680
20070803T12:18:41 ,       29.5370 ,     -95.0670
20070803T12:18:42 ,       29.5370 ,     -95.0670
20070803T12:18:43 ,       29.5360 ,     -95.0670
20070803T12:18:44 ,       29.5350 ,     -95.0660
20070803T12:18:45 ,       29.5340 ,     -95.0650
20070803T12:18:46 ,       29.5330 ,     -95.0650
20070803T12:18:47 ,       29.5330 ,     -95.0640
20070803T12:18:48 ,       29.5320 ,     -95.0640
20070803T12:18:49 ,       29.5310 ,     -95.0630
20070803T12:18:50 ,       29.5300 ,     -95.0630
20070803T12:18:51 ,       29.5300 ,     -95.0620
20070803T12:18:52 ,       29.5290 ,     -95.0610
20070803T12:18:53 ,       29.5280 ,     -95.0610
20070803T12:18:54 ,       29.5270 ,     -95.0600
20070803T12:18:55 ,       29.5270 ,     -95.0600
20070803T12:18:56 ,       29.5260 ,     -95.0590
20070803T12:18:57 ,       29.5250 ,     -95.0590
20070803T12:18:58 ,       29.5240 ,     -95.0580
20070803T12:18:59 ,       29.5230 ,     -95.0570
20070803T12:19:00 ,       29.5230 ,     -95.0570
20070803T12:19:01 ,       29.5220 ,     -95.0560
20070803T12:19:02 ,       29.5210 ,     -95.0560
20070803T12:19:03 ,       29.5200 ,     -95.0550
20070803T12:19:04 ,       29.5200 ,     -95.0550
20070803T12:19:05 ,       29.5190 ,     -95.0540
20070803T12:19:06 ,       29.5180 ,     -95.0530
20070803T12:19:07 ,       29.5170 ,     -95.0530
20070803T12:19:08 ,       29.5160 ,     -95.0520
20070803T12:19:09 ,       29.5160 ,     -95.0520
20070803T12:19:10 ,       29.5150 ,     -95.0510
20070803T12:19:11 ,       29.5140 ,     -95.0510
20070803T12:19:12 ,       29.5130 ,     -95.0500
20070803T12:19:13 ,       29.5120 ,     -95.0500
20070803T12:19:14 ,       29.5120 ,     -95.0500
20070803T12:19:15 ,       29.5110 ,     -95.0490
20070803T12:19:16 ,       29.5100 ,     -95.0490
20070803T12:19:17 ,       29.5090 ,     -95.0480
20070803T12:19:18 ,       29.5080 ,     -95.0480
20070803T12:19:19 ,       29.5070 ,     -95.0470
20070803T12:19:20 ,       29.5060 ,     -95.0470
20070803T12:19:21 ,       29.5060 ,     -95.0460
20070803T12:19:22 ,       29.5050 ,     -95.0460
20070803T12:19:23 ,       29.5040 ,     -95.0460
20070803T12:19:24 ,       29.5030 ,     -95.0450
20070803T12:19:25 ,       29.5020 ,     -95.0450
20070803T12:19:26 ,       29.5010 ,     -95.0440
20070803T12:19:27 ,       29.5000 ,     -95.0440
20070803T12:19:28 ,       29.4990 ,     -95.0430
20070803T12:19:29 ,       29.4980 ,     -95.0430
20070803T12:19:30 ,       29.4980 ,     -95.0430
20070803T12:19:31 ,       29.4970 ,     -95.0420
20070803T12:19:32 ,       29.4960 ,     -95.0420
20070803T12:19:33 ,       29.4950 ,     -95.0410
20070803T12:19:34 ,       29.4940 ,     -95.0410
20070803T12:19:35 ,       29.4930 ,     -95.0400
20070803T12:19:36 ,       29.4920 ,     -95.0400
20070803T12:19:37 ,       29.4910 ,     -95.0400
20070803T12:19:38 ,       29.4910 ,     -95.0390
20070803T12:19:39 ,       29.4900 ,     -95.0390
20070803T12:19:40 ,       29.4890 ,     -95.0380
20070803T12:19:41 ,       29.4880 ,     -95.0380
20070803T12:19:42 ,       29.4870 ,     -95.0370
20070803T12:19:43 ,       29.4860 ,     -95.0370
20070803T12:19:44 ,       29.4850 ,     -95.0370
20070803T12:19:45 ,       29.4840 ,     -95.0360
20070803T12:19:46 ,       29.4830 ,     -95.0360
20070803T12:19:47 ,       29.4830 ,     -95.0350
20070803T12:19:48 ,       29.4820 ,     -95.0350
20070803T12:19:49 ,       29.4810 ,     -95.0350
20070803T12:19:50 ,       29.4800 ,     -95.0340
20070803T12:19:51 ,       29.4790 ,     -95.0340
20070803T12:19:52 ,       29.4780 ,     -95.0330
20070803T12:19:53 ,       29.4770 ,     -95.0340
20070803T12:19:54 ,       29.4760 ,     -95.0330
20070803T12:19:55 ,       29.4750 ,     -95.0330
20070803T12:19:56 ,       29.4740 ,     -95.0320
20070803T12:19:57 ,       29.4740 ,     -95.0320
20070803T12:19:58 ,       29.4730 ,     -95.0320
20070803T12:19:59 ,       29.4720 ,     -95.0310
20070803T12:20:00 ,       29.4710 ,     -95.0310
20070803T12:20:01 ,       29.4700 ,     -95.0300
20070803T12:20:02 ,       29.4690 ,     -95.0300
20070803T12:20:03 ,       29.4680 ,     -95.0290
20070803T12:20:04 ,       29.4670 ,     -95.0290
20070803T12:20:05 ,       29.4670 ,     -95.0280
20070803T12:20:06 ,       29.4660 ,     -95.0280
20070803T12:20:07 ,       29.4650 ,     -95.0270
20070803T12:20:08 ,       29.4640 ,     -95.0270
20070803T12:20:09 ,       29.4630 ,     -95.0260
20070803T12:20:10 ,       29.4620 ,     -95.0260
20070803T12:20:11 ,       29.4610 ,     -95.0250
20070803T12:20:12 ,       29.4600 ,     -95.0240
20070803T12:20:13 ,       29.4600 ,     -95.0240
20070803T12:20:14 ,       29.4590 ,     -95.0230
20070803T12:20:15 ,       29.4580 ,     -95.0230
20070803T12:20:16 ,       29.4570 ,     -95.0220
20070803T12:20:17 ,       29.4560 ,     -95.0210
20070803T12:20:18 ,       29.4560 ,     -95.0210
20070803T12:20:19 ,       29.4550 ,     -95.0200
20070803T12:20:20 ,       29.4540 ,     -95.0190
20070803T12:20:21 ,       29.4530 ,     -95.0190
20070803T12:20:22 ,       29.4520 ,     -95.0180
20070803T12:20:23 ,       29.4520 ,     -95.0170
20070803T12:20:24 ,       29.4510 ,     -95.0170
20070803T12:20:25 ,       29.4500 ,     -95.0170
20070803T12:20:26 ,       29.4490 ,     -95.0160
20070803T12:20:27 ,       29.4480 ,     -95.0150
20070803T12:20:28 ,       29.4480 ,     -95.0150
20070803T12:20:29 ,       29.4470 ,     -95.0140
20070803T12:20:30 ,       29.4460 ,     -95.0130
20070803T12:20:31 ,       29.4450 ,     -95.0120
20070803T12:20:32 ,       29.4440 ,     -95.0120
20070803T12:20:33 ,       29.4440 ,     -95.0110
20070803T12:20:34 ,       29.4430 ,     -95.0100
20070803T12:20:35 ,       29.4420 ,     -95.0100
20070803T12:20:36 ,       29.4410 ,     -95.0090
20070803T12:20:37 ,       29.4400 ,     -95.0080
20070803T12:20:38 ,       29.4400 ,     -95.0080
20070803T12:20:39 ,       29.4390 ,     -95.0070
20070803T12:20:40 ,       29.4380 ,     -95.0060
20070803T12:20:41 ,       29.4370 ,     -95.0060
20070803T12:20:42 ,       29.4360 ,     -95.0050
20070803T12:20:43 ,       29.4350 ,     -95.0040
20070803T12:20:44 ,       29.4350 ,     -95.0040
20070803T12:20:45 ,       29.4340 ,     -95.0030
20070803T12:20:46 ,       29.4330 ,     -95.0020
20070803T12:20:47 ,       29.4320 ,     -95.0020
20070803T12:20:48 ,       29.4310 ,     -95.0010
20070803T12:20:49 ,       29.4300 ,     -95.0000
20070803T12:20:50 ,       29.4300 ,     -95.0000
20070803T12:20:51 ,       29.4290 ,     -95.0000
20070803T12:20:52 ,       29.4280 ,     -94.9990
20070803T12:20:53 ,       29.4270 ,     -94.9980
20070803T12:20:54 ,       29.4260 ,     -94.9980
20070803T12:20:55 ,       29.4250 ,     -94.9970
20070803T12:20:56 ,       29.4240 ,     -94.9970
20070803T12:20:57 ,       29.4230 ,     -94.9960
20070803T12:20:58 ,       29.4230 ,     -94.9950
20070803T12:20:59 ,       29.4220 ,     -94.9950
20070803T12:21:00 ,       29.4210 ,     -94.9940
20070803T12:21:01 ,       29.4200 ,     -94.9930
20070803T12:21:02 ,       29.4190 ,     -94.9930
20070803T12:21:03 ,       29.4180 ,     -94.9920
20070803T12:21:04 ,       29.4170 ,     -94.9910
20070803T12:21:05 ,       29.4160 ,     -94.9910
20070803T12:21:06 ,       29.4160 ,     -94.9900
20070803T12:21:07 ,       29.4150 ,     -94.9900
20070803T12:21:08 ,       29.4140 ,     -94.9890
20070803T12:21:09 ,       29.4130 ,     -94.9880
20070803T12:21:10 ,       29.4120 ,     -94.9880
20070803T12:21:11 ,       29.4110 ,     -94.9870
20070803T12:21:12 ,       29.4100 ,     -94.9860
20070803T12:21:13 ,       29.4090 ,     -94.9860
20070803T12:21:14 ,       29.4090 ,     -94.9850
20070803T12:21:15 ,       29.4080 ,     -94.9840
20070803T12:21:16 ,       29.4070 ,     -94.9830
20070803T12:21:17 ,       29.4060 ,     -94.9830
20070803T12:21:18 ,       29.4050 ,     -94.9830
20070803T12:21:19 ,       29.4040 ,     -94.9820
20070803T12:21:20 ,       29.4040 ,     -94.9810
20070803T12:21:21 ,       29.4030 ,     -94.9800
20070803T12:21:22 ,       29.4020 ,     -94.9800
20070803T12:21:23 ,       29.4010 ,     -94.9790
20070803T12:21:24 ,       29.4000 ,     -94.9780
20070803T12:21:25 ,       29.4000 ,     -94.9770
20070803T12:21:26 ,       29.3990 ,     -94.9760
20070803T12:21:27 ,       29.3980 ,     -94.9760
20070803T12:21:28 ,       29.3970 ,     -94.9750
20070803T12:21:29 ,       29.3960 ,     -94.9740
20070803T12:21:30 ,       29.3960 ,     -94.9730
20070803T12:21:31 ,       29.3950 ,     -94.9720
20070803T12:21:32 ,       29.3940 ,     -94.9710
20070803T12:21:33 ,       29.3930 ,     -94.9700
20070803T12:21:34 ,       29.3930 ,     -94.9690
20070803T12:21:35 ,       29.3920 ,     -94.9690
20070803T12:21:36 ,       29.3910 ,     -94.9680
20070803T12:21:37 ,       29.3900 ,     -94.9670
20070803T12:21:38 ,       29.3900 ,     -94.9670
20070803T12:21:39 ,       29.3890 ,     -94.9660
20070803T12:21:40 ,       29.3880 ,     -94.9650
20070803T12:21:41 ,       29.3870 ,     -94.9640
20070803T12:21:42 ,       29.3860 ,     -94.9630
20070803T12:21:43 ,       29.3860 ,     -94.9620
20070803T12:21:44 ,       29.3850 ,     -94.9610
20070803T12:21:45 ,       29.3840 ,     -94.9600
20070803T12:21:46 ,       29.3830 ,     -94.9600
20070803T12:21:47 ,       29.3830 ,     -94.9590
20070803T12:21:48 ,       29.3820 ,     -94.9580
20070803T12:21:49 ,       29.3810 ,     -94.9570
20070803T12:21:50 ,       29.3810 ,     -94.9560
20070803T12:21:51 ,       29.3800 ,     -94.9550
20070803T12:21:52 ,       29.3790 ,     -94.9540
20070803T12:21:53 ,       29.3780 ,     -94.9530
20070803T12:21:54 ,       29.3780 ,     -94.9520
20070803T12:21:55 ,       29.3770 ,     -94.9510
20070803T12:21:56 ,       29.3760 ,     -94.9500
20070803T12:21:57 ,       29.3760 ,     -94.9500
20070803T12:21:58 ,       29.3750 ,     -94.9490
20070803T12:21:59 ,       29.3740 ,     -94.9480
20070803T12:22:00 ,       29.3740 ,     -94.9470
20070803T12:22:01 ,       29.3730 ,     -94.9460
20070803T12:22:02 ,       29.3720 ,     -94.9450
20070803T12:22:03 ,       29.3720 ,     -94.9440
20070803T12:22:04 ,       29.3710 ,     -94.9430
20070803T12:22:05 ,       29.3700 ,     -94.9420
20070803T12:22:06 ,       29.3690 ,     -94.9410
20070803T12:22:07 ,       29.3690 ,     -94.9400
20070803T12:22:08 ,       29.3680 ,     -94.9390
20070803T12:22:09 ,       29.3670 ,     -94.9380
20070803T12:22:10 ,       29.3670 ,     -94.9370
20070803T12:22:11 ,       29.3660 ,     -94.9360
20070803T12:22:12 ,       29.3650 ,     -94.9350
20070803T12:22:13 ,       29.3640 ,     -94.9350
20070803T12:22:14 ,       29.3640 ,     -94.9340
20070803T12:22:15 ,       29.3630 ,     -94.9330
20070803T12:22:16 ,       29.3620 ,     -94.9320
20070803T12:22:17 ,       29.3610 ,     -94.9310
20070803T12:22:18 ,       29.3610 ,     -94.9300
20070803T12:22:19 ,       29.3600 ,     -94.9290
20070803T12:22:20 ,       29.3590 ,     -94.9290
20070803T12:22:21 ,       29.3580 ,     -94.9280
20070803T12:22:22 ,       29.3580 ,     -94.9270
20070803T12:22:23 ,       29.3570 ,     -94.9260
20070803T12:22:24 ,       29.3560 ,     -94.9250
20070803T12:22:25 ,       29.3550 ,     -94.9240
20070803T12:22:26 ,       29.3550 ,     -94.9230
20070803T12:22:27 ,       29.3540 ,     -94.9220
20070803T12:22:28 ,       29.3530 ,     -94.9210
20070803T12:22:29 ,       29.3520 ,     -94.9200
20070803T12:22:30 ,       29.3520 ,     -94.9190
20070803T12:22:31 ,       29.3510 ,     -94.9180
20070803T12:22:32 ,       29.3500 ,     -94.9170
20070803T12:22:33 ,       29.3490 ,     -94.9170
20070803T12:22:34 ,       29.3480 ,     -94.9160
20070803T12:22:35 ,       29.3480 ,     -94.9150
20070803T12:22:36 ,       29.3470 ,     -94.9140
20070803T12:22:37 ,       29.3460 ,     -94.9130
20070803T12:22:38 ,       29.3450 ,     -94.9120
20070803T12:22:39 ,       29.3450 ,     -94.9110
20070803T12:22:40 ,       29.3440 ,     -94.9100
20070803T12:22:41 ,       29.3430 ,     -94.9090
20070803T12:22:42 ,       29.3420 ,     -94.9090
20070803T12:22:43 ,       29.3420 ,     -94.9080
20070803T12:22:44 ,       29.3410 ,     -94.9070
20070803T12:22:45 ,       29.3400 ,     -94.9060
20070803T12:22:46 ,       29.3390 ,     -94.9050
20070803T12:22:47 ,       29.3380 ,     -94.9040
20070803T12:22:48 ,       29.3380 ,     -94.9030
20070803T12:22:49 ,       29.3370 ,     -94.9020
20070803T12:22:50 ,       29.3360 ,     -94.9010
20070803T12:22:51 ,       29.3350 ,     -94.9000
20070803T12:22:52 ,       29.3350 ,     -94.9000
20070803T12:22:53 ,       29.3340 ,     -94.8990
20070803T12:22:54 ,       29.3330 ,     -94.8980
20070803T12:22:55 ,       29.3320 ,     -94.8970
20070803T12:22:56 ,       29.3310 ,     -94.8960
20070803T12:22:57 ,       29.3310 ,     -94.8950
20070803T12:22:58 ,       29.3300 ,     -94.8940
20070803T12:22:59 ,       29.3290 ,     -94.8930
20070803T12:23:00 ,       29.3280 ,     -94.8930
20070803T12:23:01 ,       29.3270 ,     -94.8920
20070803T12:23:02 ,       29.3270 ,     -94.8910
20070803T12:23:03 ,       29.3260 ,     -94.8900
20070803T12:23:04 ,       29.3250 ,     -94.8890
20070803T12:23:05 ,       29.3240 ,     -94.8880
20070803T12:23:06 ,       29.3240 ,     -94.8870
20070803T12:23:07 ,       29.3230 ,     -94.8860
20070803T12:23:08 ,       29.3220 ,     -94.8850
20070803T12:23:09 ,       29.3210 ,     -94.8840
20070803T12:23:10 ,       29.3200 ,     -94.8840
20070803T12:23:11 ,       29.3200 ,     -94.8830
20070803T12:23:12 ,       29.3190 ,     -94.8820
20070803T12:23:13 ,       29.3180 ,     -94.8810
20070803T12:23:14 ,       29.3170 ,     -94.8800
20070803T12:23:15 ,       29.3160 ,     -94.8790
20070803T12:23:16 ,       29.3160 ,     -94.8780
20070803T12:23:17 ,       29.3150 ,     -94.8770
20070803T12:23:18 ,       29.3140 ,     -94.8760
20070803T12:23:19 ,       29.3130 ,     -94.8750
20070803T12:23:20 ,       29.3120 ,     -94.8740
20070803T12:23:21 ,       29.3120 ,     -94.8730
20070803T12:23:22 ,       29.3110 ,     -94.8730
20070803T12:23:23 ,       29.3100 ,     -94.8720
20070803T12:23:24 ,       29.3090 ,     -94.8710
20070803T12:23:25 ,       29.3080 ,     -94.8700
20070803T12:23:26 ,       29.3080 ,     -94.8690
20070803T12:23:27 ,       29.3070 ,     -94.8680
20070803T12:23:28 ,       29.3060 ,     -94.8670
20070803T12:23:29 ,       29.3050 ,     -94.8670
20070803T12:23:30 ,       29.3040 ,     -94.8660
20070803T12:23:31 ,       29.3040 ,     -94.8650
20070803T12:23:32 ,       29.3030 ,     -94.8640
20070803T12:23:33 ,       29.3020 ,     -94.8630
20070803T12:23:34 ,       29.3010 ,     -94.8620
20070803T12:23:35 ,       29.3000 ,     -94.8610
20070803T12:23:36 ,       29.3000 ,     -94.8600
20070803T12:23:37 ,       29.2990 ,     -94.8590
20070803T12:23:38 ,       29.2980 ,     -94.8580
20070803T12:23:39 ,       29.2970 ,     -94.8570
20070803T12:23:40 ,       29.2960 ,     -94.8560
20070803T12:23:41 ,       29.2960 ,     -94.8550
20070803T12:23:42 ,       29.2950 ,     -94.8540
20070803T12:23:43 ,       29.2940 ,     -94.8530
20070803T12:23:44 ,       29.2930 ,     -94.8520
20070803T12:23:45 ,       29.2920 ,     -94.8510
20070803T12:23:46 ,       29.2910 ,     -94.8500
20070803T12:23:47 ,       29.2910 ,     -94.8500
20070803T12:23:48 ,       29.2900 ,     -94.8490
20070803T12:23:49 ,       29.2890 ,     -94.8480
20070803T12:23:50 ,       29.2880 ,     -94.8470
20070803T12:23:51 ,       29.2870 ,     -94.8460
20070803T12:23:52 ,       29.2860 ,     -94.8450
20070803T12:23:53 ,       29.2860 ,     -94.8440
20070803T12:23:54 ,       29.2850 ,     -94.8430
20070803T12:23:55 ,       29.2840 ,     -94.8420
20070803T12:23:56 ,       29.2830 ,     -94.8410
20070803T12:23:57 ,       29.2820 ,     -94.8400
20070803T12:23:58 ,       29.2820 ,     -94.8390
20070803T12:23:59 ,       29.2810 ,     -94.8380
20070803T12:24:00 ,       29.2800 ,     -94.8370
20070803T12:24:01 ,       29.2790 ,     -94.8360
20070803T12:24:02 ,       29.2780 ,     -94.8350
20070803T12:24:03 ,       29.2770 ,     -94.8340
20070803T12:24:04 ,       29.2760 ,     -94.8330
20070803T12:24:05 ,       29.2760 ,     -94.8330
20070803T12:24:06 ,       29.2750 ,     -94.8320
20070803T12:24:07 ,       29.2740 ,     -94.8310
20070803T12:24:08 ,       29.2730 ,     -94.8300
20070803T12:24:09 ,       29.2720 ,     -94.8290
20070803T12:24:10 ,       29.2710 ,     -94.8280
20070803T12:24:11 ,       29.2710 ,     -94.8270
20070803T12:24:12 ,       29.2700 ,     -94.8260
20070803T12:24:13 ,       29.2690 ,     -94.8250
20070803T12:24:14 ,       29.2680 ,     -94.8240
20070803T12:24:15 ,       29.2670 ,     -94.8230
20070803T12:24:16 ,       29.2660 ,     -94.8220
20070803T12:24:17 ,       29.2660 ,     -94.8210
20070803T12:24:18 ,       29.2650 ,     -94.8200
20070803T12:24:19 ,       29.2640 ,     -94.8190
20070803T12:24:20 ,       29.2630 ,     -94.8180
20070803T12:24:21 ,       29.2620 ,     -94.8170
20070803T12:24:22 ,       29.2610 ,     -94.8170
20070803T12:24:23 ,       29.2600 ,     -94.8160
20070803T12:24:24 ,       29.2600 ,     -94.8150
20070803T12:24:25 ,       29.2590 ,     -94.8140
20070803T12:24:26 ,       29.2580 ,     -94.8130